sat.trackr.live / text

‹ back to catalog

STARLINK-31486

NORAD 59181 · 2024-045D

PAYLOAD ACTIVE UNKNOWN

§ Identity

Operator
Country
US
Launch date
2024-03-10
Launch site
AFETR
Launch vehicle
Mass (kg)
RCS (m²)

Purposes: comms

External: N2YO · Heavens-Above · Gunter

§ Orbital elements

Epoch: 2026-05-25T00:37:57.046080Z

Period
94.27 min
Inclination
43.0012°
Eccentricity
0.0001120
Mean motion
15.27576582 rev/d
Perigee alt
482.3 km
Apogee alt
483.8 km
Semi-major
6,861.2 km
B*
1.0376e-4
RAAN
18.1863°
Arg perigee
255.7750°
Mean anomaly
104.2977°
Rev number
12,487

§ Raw data

STARLINK-314861 59181U 24045D   26145.02635470  .00002594  00000+0  10376-3 0  99932 59181  43.0012  18.1863 0001120 255.7750 104.2977 15.27576582124878

JSON: /api/v1/satellites/59181 · /tle

For live sub-satellite position, see the globe view (requires WebGL).

§ Visibility from observer

Set your observer location to see the next 7 days of passes ≥ 10°. The values pass through the URL so the page stays shareable.

No JS? Fill the form by hand. The geolocation button needs JavaScript.